Location: *
(50.2903°S, 172.5375°W)
Time: 12:38:46
(UTC+00:00)

SL-16 R/B - Pass Details

Date: 17 November 2019
Orbit: 985 x 1007 km, 99.4° (Epoch: 14 December)

Event Time Altitude Azimuth Distance (km) Brightness Sun altitude
Rises 14:40:47 0° 165° (SSE) 3,764 6.6 -7.2°
Reaches altitude 10° 14:43:17 10° 166° (SSE) 2,811 5.9 -6.9°
Maximum altitude 14:49:36 76° 250° (WSW) 1,052 2.7 -6.2°
Drops below altitude 10° 14:55:53 10° 334° (NNW) 2,792 4.3 -5.4°
Enters shadow 14:57:49 - 335° (NNW) 3,525 4.9 -5.2°
